Location: Unnamed
(23.5608°S, 46.6833°W)
Time: 15:43:47
(UTC-03:00)

VELOX 1 - Pass Details

Date: 31 March 2023
Orbit: 617 x 630 km, 98.4° (Epoch: 01 June)

Event Time Altitude Azimuth Distance (km) Brightness Sun altitude
Rises 18:50:35 0° 336° (NNW) 2,880 ? -10.8°
Reaches altitude 10° 18:53:33 10° 313° (NW) 1,987 ? -11.5°
Maximum altitude 18:56:07 15° 277° (W) 1,667 ? -12.1°
Drops below altitude 10° 18:58:42 10° 240° (WSW) 2,008 ? -12.7°
Sets 19:01:44 0° 217° (SW) 2,927 ? -13.4°
